Change the Weather History Date:

Friday, July 26, 2013

  Actual Average Record
Temperature  
Mean Temperature 58 °F -  
Max Temperature 72 °F 79 °F 102 °F (1955)
Min Temperature 48 °F 55 °F 38 °F (1946)
Degree Days  
Heating Degree Days 6    
Growing Degree Days 8 (Base 50)    
Moisture  
Dew Point 58 °F    
Average Humidity 90    
Maximum Humidity 100    
Minimum Humidity 64    
Precipitation  
Precipitation 0.34 in - - ()
Sea Level Pressure  
Sea Level Pressure 29.88 in    
Wind  
Wind Speed 5 mph (West)    
Max Wind Speed 15 mph    
Max Gust Speed 21 mph    
Visibility 8 miles    
Events Rain , Thunderstorm    
Averages and records for this station are not official NWS values.
T = Trace of Precipitation, MM = Missing Value Source: NWS Daily Summary

Daily Weather History Graph

Daily Weather History Graph

Search for Another Location

Airport or City:

Trip Planner

Search our weather history database for the weather conditions in past years. The results will help you decide how hot, cold, wet, or windy it might be!

Date:

Astronomy

Jul. 26, 2013 Rise Set
Actual Time 5:28 AM CDT 8:28 PM CDT
Civil Twilight 4:53 AM CDT 9:03 PM CDT
Nautical Twilight 4:08 AM CDT 9:48 PM CDT
Astronomical Twilight 3:13 AM CDT 10:42 PM CDT
Moon 10:22 PM CDT (7/26) 10:22 AM CDT (7/26)
Length of Visible Light 16h 09m
Length of Day
14h 59m
Waning Gibbous, 80% of the Moon is Illuminated
Jul 26
Waning Gibbous
Jul 29
Last Quarter
Aug 6
New
Aug 14
First Quarter
Aug 20
Full

Hourly Weather History & Observations

Time (CDT) Temp. Dew Point Humidity Pressure Visibility Wind Dir Wind Speed Gust Speed Precip Events Conditions
12:12 AM 62.6 °F 60.8 °F 94% 29.94 in 10.0 mi Calm Calm - 0.00 in Rain Light Rain
12:18 AM 62.6 °F 60.8 °F 94% 29.95 in 4.0 mi NW 9.2 mph - 0.03 in Rain , Thunderstorm Heavy Thunderstorms and Rain
12:24 AM 62.6 °F 60.8 °F 94% 29.95 in 1.8 mi Variable 3.5 mph - 0.12 in Rain , Thunderstorm Heavy Thunderstorms and Rain
12:32 AM 62.6 °F 60.8 °F 94% 29.92 in 2.0 mi ENE 8.1 mph - 0.15 in Rain Rain
12:35 AM 62.6 °F 60.8 °F 94% 29.92 in 4.0 mi East 4.6 mph - 0.15 in Rain Rain
12:54 AM 62.1 °F 60.1 °F 93% 29.89 in 10.0 mi SE 9.2 mph - 0.17 in Rain Light Rain
1:45 AM 60.8 °F 60.8 °F 100% 29.90 in 10.0 mi SSE 6.9 mph - 0.00 in   Mostly Cloudy
1:54 AM 61.0 °F 60.1 °F 97% 29.89 in 10.0 mi SSE 4.6 mph - 0.00 in   Mostly Cloudy
2:42 AM 60.8 °F 59.0 °F 94% 29.90 in 1.8 mi South 8.1 mph - N/A   Overcast
2:54 AM 61.0 °F 60.1 °F 97% 29.89 in 1.5 mi South 4.6 mph - N/A   Overcast
3:02 AM 60.8 °F 60.8 °F 100% 29.89 in 3.0 mi SSW 3.5 mph - N/A   Overcast
3:44 AM 60.8 °F 57.2 °F 88% 29.89 in 10.0 mi Calm Calm - N/A   Scattered Clouds
3:54 AM 59.0 °F 57.9 °F 96% 29.88 in 8.0 mi SSW 4.6 mph - N/A   Clear
4:08 AM 59.0 °F 57.2 °F 94% 29.88 in 10.0 mi Calm Calm - N/A   Partly Cloudy
4:54 AM 57.9 °F 55.9 °F 93% 29.86 in 10.0 mi Calm Calm - N/A   Clear
5:54 AM 60.1 °F 59.0 °F 96% 29.87 in 9.0 mi Calm Calm - 0.00 in Rain Light Rain
6:54 AM 61.0 °F 59.0 °F 93% 29.87 in 9.0 mi Calm Calm - 0.00 in   Overcast
7:38 AM 62.6 °F 60.8 °F 94% 29.88 in 9.0 mi ESE 4.6 mph - 0.00 in Rain Light Rain
7:54 AM 62.1 °F 60.1 °F 93% 29.88 in 10.0 mi SSE 6.9 mph - 0.00 in   Overcast
8:18 AM 62.6 °F 60.8 °F 94% 29.89 in 10.0 mi Variable 3.5 mph - N/A   Overcast
8:37 AM 62.6 °F 60.8 °F 94% 29.90 in 10.0 mi Calm Calm - N/A Thunderstorm Overcast
8:52 AM 62.6 °F 60.8 °F 94% 29.89 in 10.0 mi South 4.6 mph - N/A   Overcast
8:54 AM 62.1 °F 60.1 °F 93% 29.90 in 10.0 mi South 3.5 mph - N/A   Overcast
9:36 AM 62.6 °F 60.8 °F 94% 29.89 in 10.0 mi South 6.9 mph - N/A   Overcast
9:54 AM 64.0 °F 61.0 °F 90% 29.89 in 10.0 mi SSW 4.6 mph - N/A   Overcast
10:12 AM 64.4 °F 62.6 °F 94% 29.87 in 10.0 mi SSE 3.5 mph - N/A   Overcast
10:54 AM 64.9 °F 61.0 °F 87% 29.86 in 10.0 mi South 8.1 mph - N/A   Overcast
11:08 AM 64.4 °F 62.6 °F 94% 29.85 in 7.0 mi Calm Calm - 0.00 in Rain Light Rain
11:54 AM 64.0 °F 62.1 °F 93% 29.86 in 8.0 mi SW 4.6 mph - 0.03 in Rain Light Rain
12:26 PM 64.4 °F 62.6 °F 94% 29.84 in 10.0 mi South 5.8 mph - 0.00 in Rain Light Rain
12:54 PM 64.9 °F 62.1 °F 90% 29.84 in 10.0 mi South 4.6 mph - 0.00 in Rain Light Rain
1:08 PM 64.4 °F 62.6 °F 94% 29.85 in 10.0 mi Calm Calm - 0.00 in Rain , Thunderstorm Light Thunderstorms and Rain
1:22 PM 64.4 °F 60.8 °F 88% 29.84 in 8.0 mi North 11.5 mph - 0.00 in Rain , Thunderstorm Rain
1:36 PM 62.6 °F 60.8 °F 94% 29.83 in 5.0 mi North 11.5 mph 18.4 mph 0.02 in Rain Rain
1:54 PM 64.0 °F 59.0 °F 84% 29.84 in 10.0 mi North 10.4 mph - 0.02 in   Mostly Cloudy
2:54 PM 66.0 °F 57.9 °F 75% 29.81 in 10.0 mi Calm Calm - N/A   Overcast
3:54 PM 69.1 °F 57.9 °F 68% 29.81 in 10.0 mi WNW 4.6 mph - N/A   Partly Cloudy
4:47 PM 69.8 °F 57.2 °F 64% 29.83 in 10.0 mi North 5.8 mph - N/A Thunderstorm Mostly Cloudy
4:54 PM 66.0 °F 59.0 °F 78% 29.85 in 5.0 mi NNW 15.0 mph 20.7 mph 0.02 in Rain , Thunderstorm Heavy Rain
5:05 PM 62.6 °F 55.4 °F 77% 29.84 in 5.0 mi North 12.7 mph - 0.03 in Rain , Thunderstorm Heavy Rain
5:25 PM 60.8 °F 55.4 °F 82% 29.86 in 10.0 mi East 4.6 mph - 0.03 in Rain , Thunderstorm Light Thunderstorms and Rain
5:49 PM 60.8 °F 57.2 °F 88% 29.86 in 10.0 mi Variable 4.6 mph - 0.03 in Rain Light Rain
5:54 PM 61.0 °F 57.0 °F 87% 29.87 in 10.0 mi Calm Calm - 0.03 in Rain Light Rain
6:54 PM 59.0 °F 55.9 °F 90% 29.89 in 4.0 mi NNW 8.1 mph - 0.04 in Rain Rain
6:58 PM 59.0 °F 55.4 °F 88% 29.89 in 2.0 mi North 6.9 mph - 0.01 in Rain Heavy Rain
7:09 PM 59.0 °F 55.4 °F 88% 29.89 in 9.0 mi NNW 11.5 mph - 0.01 in Rain Light Rain
7:20 PM 57.2 °F 55.4 °F 94% 29.90 in 9.0 mi NNW 9.2 mph - 0.01 in Rain Light Rain
7:54 PM 55.0 °F 52.0 °F 89% 29.91 in 5.0 mi NNW 15.0 mph - 0.03 in Rain Light Rain
8:42 PM 51.8 °F 48.2 °F 88% 29.93 in 10.0 mi NW 12.7 mph - 0.00 in   Overcast
8:54 PM 51.1 °F 48.0 °F 89% 29.94 in 10.0 mi NW 13.8 mph - 0.00 in   Overcast
9:54 PM 50.0 °F 46.0 °F 86% 29.94 in 10.0 mi NW 11.5 mph - N/A   Overcast
10:54 PM 48.9 °F 45.0 °F 86% 29.93 in 10.0 mi NW 10.4 mph - N/A   Overcast
11:54 PM 48.9 °F 45.0 °F 86% 29.92 in 10.0 mi NW 10.4 mph - N/A   Overcast